Regional Weather Roundup
Issued by NWS

Home | Current Version | Previous Version | Graphics & Text | Print | Product List | Glossary On
Versions: 1 2 3 4 5 6 7 8 9 10 11 12 13 14 15 16 17 18 19 20 21 22 23 24 25 26 27 28 29 30 31 32 33 34 35 36 37 38 39 40 41 42 43 44 45 46 47 48 49 50
000
ASUS43 KMPX 310701
RWRMN
WEATHER ROUNDUP FOR MINNESOTA
NATIONAL WEATHER SERVICE TWIN CITIES/CHANHASSEN MN
200 AM CDT THU JUL 31 2014


NOTE: "FAIR" INDICATES FEW OR NO CLOUDS BELOW 12,000 FEET WITH NO
SIGNIFICANT WEATHER AND/OR OBSTRUCTIONS TO VISIBILITY. N/A MEANS
CURRENT SKY AND/OR WEATHER CONDITIONS ARE NOT AVAILABLE.

MNZ060>063-068>070-310800-
   Twin Cities Metro

CITY           SKY/WX    TMP DP  RH WIND       PRES   REMARKS
TWIN CITIES    CLEAR     67  59  75 W3        30.04S
ST PAUL        CLEAR     65  60  84 CALM      30.03F
CRYSTAL        CLEAR     64  56  75 W3        30.02F
BLAINE         CLEAR     64  59  82 CALM      30.04S
LAKEVILLE      CLEAR     61  57  88 CALM      30.04F
EDEN PRAIRIE   CLEAR     64  58  80 W6        30.04S
SOUTH ST PAUL  CLEAR     66  58  75 CALM      30.03F
LAKE ELMO      FAIR      59  55  88 CALM      30.04F
$$
MNZ001>005-007-008-013>017-022>024-027-028-310800-
   Northwest Minnesota

CITY           SKY/WX    TMP DP  RH WIND       PRES   REMARKS
BEMIDJI        CLEAR     60  54  81 W6        30.04S
HALLOCK        CLEAR     63  57  82 W3        30.02S
ROSEAU         CLEAR     63  57  82 W7        30.02S
WARROAD        CLEAR     63  57  82 W6        30.02S
THIEF RVR FALL CLEAR     61  57  88 CALM      30.04S
CROOKSTON      CLEAR     61  57  88 CALM      30.04F
FOSSTON        CLEAR     54  52  94 S3        30.06S
DETROIT LAKES  CLEAR     61  59  94 CALM      30.08S
MOORHEAD       CLEAR     61  61 100 CALM      30.06S
PARK RAPIDS    CLEAR     55  53  93 CALM      30.05F
$$
MNZ006-009>011-018-025>026-310800-
   North Central Minnesota

CITY           SKY/WX    TMP DP  RH WIND       PRES   REMARKS
BAUDETTE       CLEAR     64  58  80 NW5       30.01F
FLAG ISLAND    CLEAR     66  63  88 NW5       29.99F
INTL FALLS     CLEAR     53  52  96 CALM      29.99F
WASKISH        CLEAR     66  61  82 W8        30.01S
BIG FORK       PTCLDY    61  55  82 W1        30.02S
LONGVILLE      CLEAR     55  55 100 CALM      30.03F
GRAND RAPIDS   CLEAR     64  55  72 W6        30.02S
CRANE LAKE     PTCLDY    52  50  93 CALM      30.01S FOG
ORR            PTCLDY    57  54  88 CALM      29.98S
COOK           FOG       55  55 100 CALM      30.01S VSB 1/2
$$
MNZ012-019>021-037-310800-
   Northeast Minnesota

CITY           SKY/WX    TMP DP  RH WIND       PRES   REMARKS
DULUTH         CLOUDY    63  56  78 NW3       30.00S
ELY            CLEAR     52  50  93 CALM      29.99F
HIBBING        PTCLDY    63  56  78 NW6       30.00F
EVELETH        PTCLDY    59  57  94 CALM      30.01F FOG
DULUTH HARBOR  MOCLDY    70  61  73 NW9       29.97F
TWO HARBORS    CLEAR     61  54  77 CALM      29.97S
SILVER BAY     CLEAR     52  52 100 CALM      29.97F FOG
GRAND MARAIS     N/A     60  50  69 NW8       29.93F
G MARAIS ARPRT CLEAR     52  45  76 NW5       29.98F
$$
MNZ029>031-032-039>041-046>048-054>057-064-310800-
   West Central Minnesota

CITY           SKY/WX    TMP DP  RH WIND       PRES   REMARKS
FERGUS FALLS   CLEAR     61  55  82 CALM      30.06S
WHEATON        CLEAR     57  54  88 CALM      30.08F
MORRIS         CLEAR     57  54  88 W3        30.06F
ALEXANDRIA     PTCLDY    61  58  90 CALM      30.09S
ELBOW LAKE     FAIR      59  56  89 SW3       30.06F
WADENA         CLEAR     54  52  94 W3        30.07S
GLENWOOD       CLEAR     61  57  88 CALM      30.08S
APPLETON       CLEAR     57  54  88 W5        30.07S
BENSON         CLEAR     55  55 100 CALM      30.07F
ORTONVILLE     CLEAR     61  55  82 W3        30.07F
MADISON        CLEAR     61  55  82 CALM      30.08S
WILLMAR        FAIR      57  54  88 CALM      30.08F
$$
MNZ033>034-036-042>043-049>051-058-059-310800-
   Central Minnesota

CITY           SKY/WX    TMP DP  RH WIND       PRES   REMARKS
ST CLOUD       CLEAR     60  54  80 CALM      30.05S
SAUK CENTRE    FAIR      57  54  89 CALM      30.07S
PAYNESVILLE    CLEAR     51  51  99 SW3       30.07F
AITKIN         CLEAR     61  55  82 CALM      30.02F
PINE RIVER     CLEAR     55  54  94 CALM      30.08S
BRAINERD       CLEAR     56  54  93 CALM      30.05S
STAPLES        CLEAR     55  54  94 CALM      30.06S
LONG PRAIRIE   FAIR      54  52  94 CALM      30.07F
LITTLE FALLS   CLEAR     54  52  94 CALM      30.06S
LITCHFIELD       N/A     64  59  82 W5        30.08R
BUFFALO        CLEAR     63  57  81 W3        30.06S
MAPLE LAKE     CLEAR     62  58  87 W3        30.06S
$$
MNZ037-044-045-052-053-310800-
   East Central Minnesota

CITY           SKY/WX    TMP DP  RH WIND       PRES   REMARKS
PRINCETON      CLEAR     57  55  94 CALM      30.04F
MORA           CLEAR     59  54  82 CALM      30.05S
CAMBRIDGE      CLEAR     61  52  72 CALM      30.02S
RUSH CITY      MOCLDY    59  55  87 CALM      30.02F
MOOSE LAKE     CLEAR     61  55  82 NW6       30.00S
HINCKLEY       FAIR      59  57  94 W6        30.01F
CLOQUET        CLEAR     61  54  77 W6        30.01S
MCGREGOR       CLEAR     63  55  77 W5        30.03S
$$
MNZ071>073-080-081-089-090-097-098-310800-
   Southwest Minnesota

CITY           SKY/WX    TMP DP  RH WIND       PRES   REMARKS
MONTEVIDEO     CLEAR     61  55  82 NW6       30.08F
GRANITE FALLS  CLEAR     54  52  92 SW6       30.09S
CANBY          CLEAR     57  54  90 SW5       30.09F
MARSHALL       PTCLDY    57  52  82 SW5       30.08S
REDWOOD FALLS  CLEAR     63  55  75 W6        30.07F
OLIVIA         CLEAR     59  54  82 W6        30.06F
PIPESTONE      CLEAR     61  55  82 CALM      30.11S
WINDOM         PTCLDY    57  55  94 CALM      30.10S
WORTHINGTON    CLEAR     57  54  88 W5        30.11F
JACKSON        CLEAR     57  54  88 CALM      30.10F
TRACY          MOCLDY    62  59  90 SW6       30.10S
SLAYTON        CLEAR     55  54  95 CALM      30.11F
$$
MNZ065>067-074>077-082>085-091>093-310800-
   South Central Minnesota

CITY           SKY/WX    TMP DP  RH WIND       PRES   REMARKS
MANKATO        CLEAR     63  54  72 SW3       30.06F
NEW ULM        CLEAR     55  55 100 W3        30.07S
ST JAMES       CLEAR     59  55  88 SW3       30.09S
FAIRMONT       PTCLDY    61  52  72 CALM      30.08F
GLENCOE        CLEAR     62  55  78 CALM      30.06S
FARIBAULT      CLEAR     64  55  72 W3        30.06F
OWATONNA       CLEAR     57  54  88 CALM      30.06F
WASECA         CLEAR     55  52  88 CALM      30.08F
ALBERT LEA     CLEAR     63  57  82 W3        30.08S
$$
MNZ078>079-086>088-094>096-310800-
   Southeast Minnesota

CITY           SKY/WX    TMP DP  RH WIND       PRES   REMARKS
ROCHESTER      CLEAR     60  55  83 W8        30.07F
RED WING       CLEAR     59  57  94 CALM      30.02F
STANTON        CLEAR     61  56  85 CALM      30.03F
DODGE CENTER   PTCLDY    59  55  88 W7        30.06F
WINONA         CLEAR     63  59  88 CALM      30.03F
AUSTIN         CLEAR     63  55  77 W3        30.07S
PRESTON        CLEAR     60  59  97 NW6       30.07S
$$
ABBREVIATIONS USED IN REMARKS
   TC - TEMPERATURES IN CELSIUS
  WCI - WIND CHILL INDEX
   HX - HEAT INDEX
  VSB - VISIBILITY
$$



USA.gov is the U.S. government's official web portal to all federal, state and local government web resources and services.